Hourly Weather Barlogi

Today, 20 September, Sunday

Time Temperature Precipitation Wind Pressure Humidity
00:00 +12°C° 0 mm 2 mps 758 mmHg 59%
01:00 +12°C° 0 mm 2 mps 758 mmHg 59%
02:00 +12°C° 0 mm 2 mps 758 mmHg 60%
03:00 +10°C° 0 mm 2 mps 757 mmHg 60%
04:00 +10°C° 0 mm 3 mps 757 mmHg 61%
05:00 +10°C° 0 mm 3 mps 757 mmHg 61%
06:00 +11°C° 0 mm 3 mps 757 mmHg 62%
07:00 +11°C° 0 mm 3 mps 757 mmHg 62%
08:00 +13°C° 0 mm 3 mps 757 mmHg 58%
09:00 +14°C° 0 mm 3 mps 757 mmHg 54%
10:00 +17°C° 0 mm 3 mps 757 mmHg 50%
11:00 +18°C° 0 mm 3 mps 757 mmHg 46%
12:00 +19°C° 0 mm 4 mps 757 mmHg 43%
13:00 +20°C° 0 mm 4 mps 756 mmHg 40%
14:00 +20°C° 0 mm 3 mps 756 mmHg 42%
15:00 +20°C° 0 mm 3 mps 756 mmHg 43%
16:00 +20°C° 0 mm 3 mps 755 mmHg 45%
17:00 +18°C° 0 mm 3 mps 755 mmHg 49%
18:00 +16°C° 0 mm 3 mps 755 mmHg 53%
19:00 +13°C° 0 mm 3 mps 755 mmHg 56%
20:00 +13°C° 0 mm 3 mps 756 mmHg 58%
21:00 +12°C° 0 mm 3 mps 756 mmHg 59%
22:00 +12°C° 0 mm 3 mps 756 mmHg 60%
23:00 +12°C° 0 mm 3 mps 756 mmHg 62%

Tomorrow, 21 September, Monday

Time Temperature Precipitation Wind Pressure Humidity
00:00 +12°C° 0 mm 2 mps 756 mmHg 64%
01:00 +12°C° 0 mm 2 mps 755 mmHg 66%
02:00 +12°C° 0 mm 2 mps 755 mmHg 69%
03:00 +12°C° 0 mm 2 mps 755 mmHg 72%
04:00 +10°C° 0 mm 2 mps 755 mmHg 75%
05:00 +12°C° 0 mm 2 mps 755 mmHg 75%
06:00 +12°C° 0 mm 2 mps 755 mmHg 74%
07:00 +13°C° 0 mm 2 mps 755 mmHg 74%
08:00 +15°C° 0 mm 2 mps 755 mmHg 67%
09:00 +17°C° 0 mm 2 mps 755 mmHg 61%
10:00 +19°C° 0 mm 2 mps 755 mmHg 54%
11:00 +20°C° 0 mm 2 mps 755 mmHg 50%
12:00 +23°C° 0 mm 2 mps 754 mmHg 46%
13:00 +24°C° 0 mm 2 mps 754 mmHg 42%
14:00 +24°C° 0 mm 1 mps 754 mmHg 42%
15:00 +24°C° 0 mm 1 mps 754 mmHg 43%
16:00 +24°C° 0 mm 1 mps 753 mmHg 43%
17:00 +23°C° 0 mm 1 mps 753 mmHg 47%
18:00 +21°C° 0 mm 1 mps 753 mmHg 51%
19:00 +19°C° 0 mm 1 mps 753 mmHg 55%
20:00 +18°C° 0 mm 1 mps 753 mmHg 56%
21:00 +18°C° 0 mm 1 mps 753 mmHg 57%
22:00 +16°C° 0 mm 1 mps 753 mmHg 59%
23:00 +16°C° 0 mm 2 mps 753 mmHg 60%

Day after tomorrow, 22 September, Tuesday

Time Temperature Precipitation Wind Pressure Humidity
00:00 +16°C° 0 mm 2 mps 753 mmHg 62%
01:00 +16°C° 0 mm 2 mps 753 mmHg 63%
02:00 +16°C° 0 mm 2 mps 753 mmHg 64%
03:00 +15°C° 0 mm 2 mps 752 mmHg 65%
04:00 +15°C° 0 mm 2 mps 752 mmHg 66%
05:00 +16°C° 0 mm 2 mps 752 mmHg 65%
06:00 +16°C° 0 mm 2 mps 752 mmHg 65%
07:00 +17°C° 0 mm 2 mps 752 mmHg 64%
08:00 +19°C° 0 mm 3 mps 752 mmHg 58%
09:00 +22°C° 0 mm 3 mps 752 mmHg 51%
10:00 +25°C° 0 mm 4 mps 752 mmHg 44%
11:00 +26°C° 0 mm 4 mps 751 mmHg 40%
12:00 +27°C° 0 mm 5 mps 751 mmHg 37%
13:00 +28°C° 0 mm 5 mps 750 mmHg 33%
14:00 +28°C° 0 mm 4 mps 750 mmHg 36%
15:00 +27°C° 0 mm 4 mps 749 mmHg 39%
16:00 +27°C° 0 mm 3 mps 749 mmHg 42%
17:00 +25°C° 0 mm 3 mps 749 mmHg 46%
18:00 +22°C° 0 mm 3 mps 749 mmHg 50%
19:00 +20°C° 0 mm 3 mps 749 mmHg 54%
20:00 +20°C° 0 mm 3 mps 748 mmHg 55%
21:00 +19°C° 0 mm 3 mps 748 mmHg 56%
22:00 +19°C° 0 mm 4 mps 748 mmHg 58%
23:00 +19°C° 0 mm 3 mps 748 mmHg 58%

23 September, Wednesday

Time Temperature Precipitation Wind Pressure Humidity
00:00 +18°C° 0 mm 3 mps 747 mmHg 58%
01:00 +18°C° 0 mm 3 mps 747 mmHg 58%
02:00 +18°C° 0 mm 3 mps 747 mmHg 58%
03:00 +17°C° 0 mm 3 mps 747 mmHg 58%
04:00 +17°C° 0 mm 3 mps 746 mmHg 57%
05:00 +18°C° 0 mm 3 mps 746 mmHg 57%
06:00 +18°C° 0 mm 3 mps 746 mmHg 57%
07:00 +18°C° 0 mm 4 mps 746 mmHg 58%
08:00 +21°C° 0 mm 4 mps 746 mmHg 54%
09:00 +23°C° 0 mm 5 mps 746 mmHg 50%
10:00 +26°C° 0 mm 5 mps 746 mmHg 46%
11:00 +27°C° 0 mm 5 mps 746 mmHg 45%
12:00 +27°C° 0 mm 6 mps 745 mmHg 44%
13:00 +28°C° 0 mm 6 mps 745 mmHg 43%
14:00 +28°C° 0 mm 5 mps 745 mmHg 46%
15:00 +27°C° 0 mm 4 mps 745 mmHg 49%
16:00 +26°C° 0 mm 4 mps 745 mmHg 52%
17:00 +25°C° 0 mm 3 mps 745 mmHg 57%
18:00 +22°C° 0 mm 3 mps 745 mmHg 62%
19:00 +21°C° 0 mm 2 mps 745 mmHg 67%
20:00 +20°C° 0.1 mm 2 mps 745 mmHg 70%
21:00 +20°C° 0.1 mm 2 mps 745 mmHg 72%
22:00 +19°C° 0.1 mm 2 mps 745 mmHg 74%
23:00 +19°C° 0 mm 2 mps 745 mmHg 76%

24 September, Thursday

Time Temperature Precipitation Wind Pressure Humidity
00:00 +18°C° 0 mm 2 mps 745 mmHg 79%
01:00 +18°C° 0 mm 2 mps 745 mmHg 81%
02:00 +18°C° 0 mm 2 mps 745 mmHg 83%
03:00 +17°C° 0 mm 2 mps 745 mmHg 84%
04:00 +17°C° 0 mm 2 mps 745 mmHg 86%
05:00 +17°C° 0 mm 2 mps 745 mmHg 83%
06:00 +17°C° 0 mm 2 mps 746 mmHg 79%
07:00 +18°C° 0 mm 2 mps 746 mmHg 76%
08:00 +19°C° 0 mm 3 mps 746 mmHg 72%
09:00 +20°C° 0 mm 3 mps 746 mmHg 68%
10:00 +22°C° 0 mm 4 mps 746 mmHg 64%
11:00 +23°C° 0 mm 4 mps 746 mmHg 60%
12:00 +25°C° 0 mm 4 mps 746 mmHg 55%
13:00 +26°C° 0 mm 4 mps 747 mmHg 51%
14:00 +26°C° 0 mm 4 mps 747 mmHg 53%
15:00 +25°C° 0 mm 3 mps 747 mmHg 55%
16:00 +25°C° 0 mm 3 mps 747 mmHg 56%
17:00 +23°C° 0.1 mm 2 mps 747 mmHg 62%
18:00 +21°C° 0.1 mm 2 mps 747 mmHg 67%
19:00 +19°C° 0.1 mm 2 mps 747 mmHg 73%
20:00 +20°C° 0 mm 1 mps 747 mmHg 74%
21:00 +20°C° 0 mm 1 mps 748 mmHg 76%
22:00 +19°C° 0 mm 1 mps 748 mmHg 77%
23:00 +19°C° 0 mm 1 mps 747 mmHg 79%

25 September, Friday

Time Temperature Precipitation Wind Pressure Humidity
00:00 +18°C° 0 mm 1 mps 747 mmHg 80%
01:00 +18°C° 0 mm 1 mps 746 mmHg 82%
02:00 +17°C° 0 mm 2 mps 746 mmHg 82%
03:00 +17°C° 0 mm 2 mps 745 mmHg 82%
04:00 +17°C° 0 mm 2 mps 745 mmHg 83%
05:00 +17°C° 0 mm 3 mps 744 mmHg 80%
06:00 +18°C° 0 mm 3 mps 743 mmHg 78%
07:00 +18°C° 0 mm 4 mps 742 mmHg 76%
08:00 +19°C° 0.2 mm 5 mps 741 mmHg 72%
09:00 +20°C° 0.2 mm 5 mps 741 mmHg 68%
10:00 +21°C° 0.2 mm 6 mps 740 mmHg 63%
11:00 +20°C° 0.9 mm 6 mps 740 mmHg 71%
12:00 +19°C° 0.9 mm 6 mps 739 mmHg 79%
13:00 +16°C° 0.9 mm 6 mps 739 mmHg 87%
14:00 +15°C° 1.4 mm 6 mps 739 mmHg 87%
15:00 +14°C° 1.4 mm 5 mps 739 mmHg 87%
16:00 +13°C° 1.4 mm 5 mps 739 mmHg 88%
17:00 +13°C° 0.5 mm 4 mps 739 mmHg 88%
18:00 +13°C° 0.5 mm 3 mps 739 mmHg 88%
19:00 +14°C° 0.5 mm 1 mps 740 mmHg 88%
20:00 +14°C° 0 mm 2 mps 740 mmHg 88%
21:00 +14°C° 0 mm 2 mps 740 mmHg 89%
22:00 +14°C° 0 mm 2 mps 740 mmHg 89%
23:00 +14°C° 0.1 mm 2 mps 740 mmHg 89%
Show more